When you browse on this site, cookies collect data to enhance your experience and personalize the content and advertising you see.
Visit our Privacy Policy to learn more. By continuing to use the site, you agree to this use of cookies and data.
  • In Österreich
  • Länderverzeichnis
  • Für 7 Tage
  • Wassertemperatur
  • Wetterkarte
  • News
  • Widgets
  • user-avatar
    Anmelden

    Stündliche Wetter Santa Cruz

    Heute, 24 Oktober, Donnerstag

    Zeit Temperatur Niederschläge Wind Luftdruck Luftfeuchtigkeit
    00:00 +28°C° 0 mm 1 m/S 722 mmHg 51%
    01:00 +26°C° 0 mm 0 m/S 722 mmHg 52%
    02:00 +25°C° 0 mm 0 m/S 721 mmHg 54%
    03:00 +27°C° 0 mm 1 m/S 721 mmHg 55%
    04:00 +26°C° 0 mm 1 m/S 722 mmHg 56%
    05:00 +26°C° 0 mm 1 m/S 722 mmHg 58%
    06:00 +27°C° 0 mm 1 m/S 722 mmHg 54%
    07:00 +28°C° 0 mm 1 m/S 723 mmHg 51%
    08:00 +30°C° 0 mm 1 m/S 724 mmHg 47%
    09:00 +33°C° 0 mm 1 m/S 724 mmHg 42%
    10:00 +36°C° 0 mm 1 m/S 724 mmHg 36%
    11:00 +40°C° 0 mm 1 m/S 724 mmHg 31%
    12:00 +39°C° 0 mm 2 m/S 723 mmHg 32%
    13:00 +38°C° 0 mm 2 m/S 722 mmHg 33%
    14:00 +37°C° 0 mm 2 m/S 720 mmHg 35%
    15:00 +37°C° 0 mm 3 m/S 720 mmHg 35%
    16:00 +36°C° 0 mm 3 m/S 720 mmHg 36%
    17:00 +36°C° 0 mm 4 m/S 720 mmHg 36%
    18:00 +34°C° 0 mm 3 m/S 720 mmHg 42%
    19:00 +31°C° 0 mm 2 m/S 720 mmHg 47%
    20:00 +29°C° 0 mm 2 m/S 720 mmHg 53%
    21:00 +28°C° 0 mm 1 m/S 720 mmHg 57%
    22:00 +28°C° 0 mm 1 m/S 721 mmHg 60%
    23:00 +27°C° 0 mm 1 m/S 721 mmHg 64%

    Morgen, 25 Oktober, Freitag

    Zeit Temperatur Niederschläge Wind Luftdruck Luftfeuchtigkeit
    00:00 +27°C° 0 mm 1 m/S 721 mmHg 64%
    01:00 +27°C° 0 mm 1 m/S 721 mmHg 64%
    02:00 +27°C° 0 mm 1 m/S 720 mmHg 65%
    03:00 +27°C° 0 mm 1 m/S 721 mmHg 63%
    04:00 +27°C° 0 mm 1 m/S 721 mmHg 62%
    05:00 +27°C° 0 mm 1 m/S 721 mmHg 61%
    06:00 +29°C° 0 mm 2 m/S 722 mmHg 56%
    07:00 +31°C° 0 mm 2 m/S 722 mmHg 51%
    08:00 +34°C° 0 mm 2 m/S 723 mmHg 45%
    09:00 +36°C° 0 mm 3 m/S 723 mmHg 40%
    10:00 +38°C° 0 mm 4 m/S 723 mmHg 34%
    11:00 +41°C° 0 mm 4 m/S 723 mmHg 29%
    12:00 +41°C° 0 mm 4 m/S 722 mmHg 29%
    13:00 +41°C° 0 mm 4 m/S 721 mmHg 30%
    14:00 +40°C° 0 mm 4 m/S 721 mmHg 30%
    15:00 +39°C° 0 mm 3 m/S 720 mmHg 30%
    16:00 +39°C° 0 mm 3 m/S 720 mmHg 30%
    17:00 +38°C° 0 mm 3 m/S 719 mmHg 30%
    18:00 +36°C° 0 mm 2 m/S 720 mmHg 36%
    19:00 +34°C° 0 mm 2 m/S 720 mmHg 41%
    20:00 +31°C° 0 mm 1 m/S 720 mmHg 47%
    21:00 +30°C° 0 mm 1 m/S 720 mmHg 49%
    22:00 +29°C° 0 mm 1 m/S 721 mmHg 52%
    23:00 +28°C° 0 mm 1 m/S 721 mmHg 54%

    übermorgen, 26 Oktober, Samstag

    Zeit Temperatur Niederschläge Wind Luftdruck Luftfeuchtigkeit
    00:00 +28°C° 0 mm 1 m/S 721 mmHg 56%
    01:00 +28°C° 0 mm 1 m/S 721 mmHg 57%
    02:00 +28°C° 0 mm 1 m/S 720 mmHg 58%
    03:00 +27°C° 0 mm 1 m/S 720 mmHg 60%
    04:00 +27°C° 0 mm 2 m/S 720 mmHg 61%
    05:00 +27°C° 0 mm 2 m/S 720 mmHg 62%
    06:00 +29°C° 0 mm 3 m/S 721 mmHg 57%
    07:00 +31°C° 0 mm 3 m/S 721 mmHg 52%
    08:00 +33°C° 0 mm 4 m/S 721 mmHg 46%
    09:00 +36°C° 0 mm 5 m/S 721 mmHg 41%
    10:00 +39°C° 0 mm 5 m/S 721 mmHg 35%
    11:00 +41°C° 0 mm 6 m/S 721 mmHg 29%
    12:00 +42°C° 0 mm 6 m/S 720 mmHg 28%
    13:00 +42°C° 0 mm 6 m/S 719 mmHg 26%
    14:00 +44°C° 0 mm 6 m/S 718 mmHg 25%
    15:00 +42°C° 0 mm 6 m/S 718 mmHg 27%
    16:00 +41°C° 0 mm 6 m/S 717 mmHg 29%
    17:00 +40°C° 0 mm 6 m/S 717 mmHg 31%
    18:00 +37°C° 0 mm 5 m/S 717 mmHg 34%
    19:00 +36°C° 0 mm 5 m/S 718 mmHg 37%
    20:00 +34°C° 0 mm 4 m/S 718 mmHg 40%
    21:00 +34°C° 0 mm 4 m/S 718 mmHg 41%
    22:00 +34°C° 0 mm 5 m/S 718 mmHg 43%
    23:00 +33°C° 0 mm 5 m/S 718 mmHg 44%

    27 Oktober, Sonntag

    Zeit Temperatur Niederschläge Wind Luftdruck Luftfeuchtigkeit
    00:00 +33°C° 0 mm 5 m/S 718 mmHg 46%
    01:00 +33°C° 0 mm 6 m/S 718 mmHg 49%
    02:00 +32°C° 0 mm 6 m/S 717 mmHg 51%
    03:00 +32°C° 0 mm 6 m/S 717 mmHg 52%
    04:00 +30°C° 0 mm 6 m/S 718 mmHg 54%
    05:00 +30°C° 0 mm 6 m/S 718 mmHg 56%
    06:00 +32°C° 0 mm 7 m/S 718 mmHg 53%
    07:00 +33°C° 0 mm 8 m/S 719 mmHg 50%
    08:00 +34°C° 0 mm 8 m/S 719 mmHg 48%
    09:00 +37°C° 0 mm 8 m/S 719 mmHg 42%
    10:00 +39°C° 0 mm 8 m/S 719 mmHg 36%
    11:00 +41°C° 0 mm 8 m/S 719 mmHg 31%
    12:00 +41°C° 0 mm 8 m/S 718 mmHg 29%
    13:00 +43°C° 0 mm 8 m/S 717 mmHg 26%
    14:00 +44°C° 0 mm 8 m/S 716 mmHg 24%
    15:00 +43°C° 0 mm 8 m/S 716 mmHg 25%
    16:00 +43°C° 0 mm 8 m/S 716 mmHg 25%
    17:00 +41°C° 0 mm 7 m/S 716 mmHg 25%
    18:00 +40°C° 0 mm 7 m/S 716 mmHg 29%
    19:00 +38°C° 0 mm 6 m/S 717 mmHg 33%
    20:00 +36°C° 0 mm 6 m/S 717 mmHg 38%
    21:00 +35°C° 0 mm 6 m/S 717 mmHg 40%
    22:00 +35°C° 0 mm 6 m/S 717 mmHg 42%
    23:00 +34°C° 0 mm 7 m/S 718 mmHg 44%

    28 Oktober, Montag

    Zeit Temperatur Niederschläge Wind Luftdruck Luftfeuchtigkeit
    00:00 +34°C° 0 mm 7 m/S 717 mmHg 46%
    01:00 +33°C° 0 mm 7 m/S 717 mmHg 49%
    02:00 +32°C° 0 mm 7 m/S 716 mmHg 51%
    03:00 +32°C° 0 mm 7 m/S 717 mmHg 53%
    04:00 +32°C° 0 mm 7 m/S 717 mmHg 54%
    05:00 +32°C° 0 mm 7 m/S 717 mmHg 55%
    06:00 +33°C° 0 mm 7 m/S 718 mmHg 52%
    07:00 +34°C° 0 mm 8 m/S 718 mmHg 49%
    08:00 +35°C° 0 mm 9 m/S 719 mmHg 46%
    09:00 +37°C° 0 mm 9 m/S 719 mmHg 41%
    10:00 +39°C° 0 mm 9 m/S 718 mmHg 36%
    11:00 +42°C° 0 mm 9 m/S 718 mmHg 32%
    12:00 +42°C° 0 mm 9 m/S 718 mmHg 30%
    13:00 +43°C° 0 mm 9 m/S 717 mmHg 28%
    14:00 +44°C° 0 mm 8 m/S 716 mmHg 25%
    15:00 +44°C° 0 mm 8 m/S 716 mmHg 26%
    16:00 +43°C° 0 mm 8 m/S 715 mmHg 26%
    17:00 +43°C° 0 mm 8 m/S 715 mmHg 27%
    18:00 +40°C° 0 mm 7 m/S 715 mmHg 30%
    19:00 +39°C° 0 mm 6 m/S 716 mmHg 33%
    20:00 +36°C° 0 mm 5 m/S 716 mmHg 37%
    21:00 +36°C° 0 mm 5 m/S 716 mmHg 38%
    22:00 +35°C° 0 mm 6 m/S 717 mmHg 39%
    23:00 +35°C° 0 mm 6 m/S 717 mmHg 41%

    29 Oktober, Dienstag

    Zeit Temperatur Niederschläge Wind Luftdruck Luftfeuchtigkeit
    00:00 +34°C° 0 mm 6 m/S 716 mmHg 43%
    01:00 +34°C° 0 mm 7 m/S 716 mmHg 45%
    02:00 +33°C° 0 mm 7 m/S 716 mmHg 48%
    03:00 +33°C° 0 mm 7 m/S 716 mmHg 48%
    04:00 +33°C° 0 mm 7 m/S 716 mmHg 49%
    05:00 +32°C° 0 mm 7 m/S 716 mmHg 50%
    06:00 +33°C° 0 mm 8 m/S 717 mmHg 48%
    07:00 +34°C° 0 mm 8 m/S 717 mmHg 46%
    08:00 +35°C° 0 mm 9 m/S 718 mmHg 43%
    09:00 +38°C° 0 mm 9 m/S 718 mmHg 40%
    10:00 +39°C° 0 mm 9 m/S 718 mmHg 36%
    11:00 +42°C° 0 mm 9 m/S 718 mmHg 32%
    12:00 +41°C° 0 mm 8 m/S 717 mmHg 30%
    13:00 +43°C° 0 mm 8 m/S 716 mmHg 29%
    14:00 +44°C° 0 mm 8 m/S 716 mmHg 27%
    15:00 +43°C° 0 mm 8 m/S 715 mmHg 28%
    16:00 +43°C° 0 mm 7 m/S 715 mmHg 29%
    17:00 +41°C° 0 mm 7 m/S 715 mmHg 29%
    18:00 +39°C° 0 mm 6 m/S 715 mmHg 32%
    19:00 +37°C° 0 mm 5 m/S 716 mmHg 35%
    20:00 +35°C° 0 mm 4 m/S 716 mmHg 38%
    21:00 +35°C° 0 mm 4 m/S 717 mmHg 40%
    22:00 +34°C° 0 mm 4 m/S 717 mmHg 42%
    23:00 +33°C° 0 mm 4 m/S 718 mmHg 44%

    30 Oktober, Mittwoch

    Zeit Temperatur Niederschläge Wind Luftdruck Luftfeuchtigkeit
    00:00 +33°C° 0 mm 4 m/S 718 mmHg 46%
    01:00 +33°C° 0 mm 4 m/S 717 mmHg 47%
    02:00 +33°C° 0 mm 5 m/S 717 mmHg 48%
    03:00 +32°C° 0 mm 4 m/S 718 mmHg 50%
    04:00 +32°C° 0 mm 4 m/S 718 mmHg 51%
    05:00 +32°C° 0 mm 4 m/S 719 mmHg 53%
    06:00 +33°C° 0 mm 5 m/S 719 mmHg 50%
    07:00 +34°C° 0 mm 5 m/S 720 mmHg 46%
    08:00 +35°C° 0 mm 6 m/S 720 mmHg 43%
    09:00 +38°C° 0 mm 7 m/S 720 mmHg 40%
    10:00 +39°C° 0 mm 7 m/S 720 mmHg 36%
    11:00 +41°C° 0 mm 7 m/S 720 mmHg 33%
    12:00 +41°C° 0 mm 7 m/S 719 mmHg 32%
    13:00 +41°C° 0 mm 7 m/S 719 mmHg 31%
    14:00 +43°C° 0 mm 7 m/S 718 mmHg 30%
    15:00 +41°C° 0 mm 6 m/S 717 mmHg 30%
    16:00 +41°C° 0 mm 6 m/S 717 mmHg 31%
    17:00 +40°C° 0 mm 5 m/S 716 mmHg 32%
    18:00 +37°C° 0 mm 4 m/S 717 mmHg 36%
    19:00 +35°C° 0 mm 3 m/S 718 mmHg 41%
    20:00 +34°C° 0 mm 2 m/S 719 mmHg 46%
    Mehr zeigen